Location: *
(37.4917°N, 71.5558°E)
Time: 00:56:48
(UTC+00:00)

OE (NEXTSAT) - Pass Details

Date: 09 April 2020
Orbit: 431 x 440 km, 46.0° (Epoch: 05 June)

Event Time Altitude Azimuth Distance (km) Brightness Sun altitude
Rises 15:04:55 0° 228° (SW) 2,405 8.4 -16.2°
Reaches altitude 10° 15:07:03 10° 223° (SW) 1,541 7.3 -16.5°
Maximum altitude 15:10:27 54° 146° (SE) 536 4.4 -17.2°
Enters shadow 15:10:59 48° 109° (ESE) 581 4.5 -17.3°
